DLA4NC LIPZ-EDDM

Flight info

Callsign DLA4NC
Flight time 0h 42m
Altitude 32000
Route ROKIB DCT SOTOV/N0342F240 T101 BETOS BETOS1B
Aircraft E195/M-SDE2E3FGIRWY/LB1

Departure

Time 2026-05-07 08:56
Airport Venice Marco Polo Airport (LIPZ)

Arrival

Time 2026-05-07 09:38
Airport Munich Airport (EDDM)
Time Latitude Longitude Altitude Speed Heading
2026-05-07 08:38 45.50362 12.34184 17 ft 0 kts 290°
2026-05-07 08:49 45.50356 12.34209 18 ft 4 kts 290°
2026-05-07 08:50 45.50346 12.34246 22 ft 4 kts 290°
2026-05-07 08:50 45.50337 12.34281 19 ft 4 kts 287°
2026-05-07 08:50 45.50333 12.34318 19 ft 4 kts 261°
2026-05-07 08:50 45.50342 12.34353 20 ft 4 kts 227°
2026-05-07 08:51 45.50348 12.34362 23 ft 0 kts 224°
2026-05-07 08:51 45.50348 12.34363 23 ft 0 kts 224°
2026-05-07 08:52 45.50346 12.34360 23 ft 2 kts 221°
2026-05-07 08:52 45.50324 12.34355 22 ft 6 kts 184°
2026-05-07 08:53 45.50261 12.34357 17 ft 12 kts 177°
2026-05-07 08:53 45.50154 12.34357 14 ft 18 kts 193°
2026-05-07 08:53 45.50051 12.34243 13 ft 21 kts 221°
2026-05-07 08:53 45.49925 12.34083 11 ft 27 kts 221°
2026-05-07 08:54 45.49789 12.33907 12 ft 26 kts 223°
2026-05-07 08:54 45.49662 12.33742 16 ft 24 kts 221°
2026-05-07 08:54 45.49540 12.33607 16 ft 18 kts 194°
2026-05-07 08:54 45.49450 12.33701 15 ft 17 kts 130°
2026-05-07 08:55 45.49464 12.33839 13 ft 22 kts 40°
2026-05-07 08:55 45.49757 12.34218 10 ft 91 kts 43°
2026-05-07 08:55 45.50390 12.35036 10 ft 153 kts 44°
2026-05-07 08:55 45.51309 12.36195 49 ft 197 kts 44°
2026-05-07 08:56 45.52152 12.37669 1007 ft 184 kts 63°
2026-05-07 08:56 45.52527 12.39304 2119 ft 163 kts 69°
2026-05-07 08:56 45.52927 12.40892 2795 ft 186 kts 75°
2026-05-07 08:56 45.53114 12.42829 3035 ft 210 kts 88°
2026-05-07 08:57 45.53099 12.45008 3341 ft 229 kts 93°
2026-05-07 08:57 45.52974 12.47299 3891 ft 232 kts 97°
2026-05-07 08:57 45.52741 12.49636 4373 ft 240 kts 100°
2026-05-07 08:57 45.52439 12.51972 5056 ft 240 kts 112°
2026-05-07 08:58 45.51476 12.53918 5494 ft 251 kts 145°
2026-05-07 08:58 45.49832 12.54834 5911 ft 263 kts 178°
2026-05-07 08:58 45.48053 12.54307 6563 ft 265 kts 209°
2026-05-07 08:58 45.46738 12.52496 7255 ft 267 kts 240°
2026-05-07 08:59 45.46291 12.49946 7938 ft 271 kts 271°
2026-05-07 08:59 45.46557 12.47279 8634 ft 273 kts 281°
2026-05-07 08:59 45.47060 12.44653 9335 ft 276 kts 284°
2026-05-07 08:59 45.47617 12.42025 10032 ft 278 kts 284°
2026-05-07 09:00 45.48191 12.39368 10356 ft 293 kts 285°
2026-05-07 09:00 45.48808 12.36535 10770 ft 303 kts 285°
2026-05-07 09:00 45.49437 12.33655 11402 ft 305 kts 285°
2026-05-07 09:00 45.50068 12.30752 12025 ft 308 kts 285°
2026-05-07 09:01 45.50703 12.27825 12645 ft 311 kts 285°
2026-05-07 09:01 45.51332 12.24865 13278 ft 313 kts 284°
2026-05-07 09:01 45.51985 12.21881 13887 ft 317 kts 285°
2026-05-07 09:01 45.52646 12.18874 14457 ft 319 kts 285°
2026-05-07 09:02 45.53309 12.15850 15026 ft 321 kts 285°
2026-05-07 09:02 45.53974 12.12802 15605 ft 323 kts 284°
2026-05-07 09:02 45.54644 12.09733 16168 ft 325 kts 284°
2026-05-07 09:02 45.55317 12.06641 16730 ft 328 kts 284°
2026-05-07 09:03 45.55996 12.03521 17276 ft 330 kts 284°
2026-05-07 09:03 45.56676 12.00389 17853 ft 332 kts 284°
2026-05-07 09:03 45.57544 11.97309 18382 ft 340 kts 299°
2026-05-07 09:03 45.59128 11.94749 18882 ft 349 kts 313°
2026-05-07 09:04 45.61035 11.92548 19371 ft 355 kts 319°
2026-05-07 09:04 45.63082 11.90528 19864 ft 360 kts 321°
2026-05-07 09:04 45.65299 11.88782 20334 ft 368 kts 328°
2026-05-07 09:04 45.67606 11.87153 20807 ft 372 kts 328°
2026-05-07 09:05 45.69957 11.85547 21260 ft 376 kts 328°
2026-05-07 09:05 45.72314 11.83912 21693 ft 379 kts 328°
2026-05-07 09:05 45.74703 11.82266 22129 ft 382 kts 328°
2026-05-07 09:05 45.77105 11.80603 22562 ft 385 kts 328°
2026-05-07 09:06 45.79525 11.78933 23007 ft 388 kts 328°
2026-05-07 09:06 45.81967 11.77239 23445 ft 391 kts 327°
2026-05-07 09:06 45.84422 11.75525 23854 ft 394 kts 327°
2026-05-07 09:06 45.86899 11.73825 24264 ft 396 kts 328°
2026-05-07 09:07 45.89392 11.72103 24648 ft 399 kts 327°
2026-05-07 09:07 45.91924 11.70424 25063 ft 402 kts 329°
2026-05-07 09:07 45.94515 11.68844 25407 ft 408 kts 334°
2026-05-07 09:07 45.97225 11.67534 25704 ft 411 kts 335°
2026-05-07 09:08 45.99944 11.66215 26019 ft 414 kts 335°
2026-05-07 09:08 46.02690 11.64927 26375 ft 417 kts 336°
2026-05-07 09:08 46.05460 11.63631 26687 ft 420 kts 335°
2026-05-07 09:08 46.08249 11.62314 27033 ft 423 kts 335°
2026-05-07 09:09 46.11051 11.60996 27334 ft 425 kts 335°
2026-05-07 09:09 46.13871 11.59665 27631 ft 428 kts 335°
2026-05-07 09:09 46.16709 11.58324 27959 ft 430 kts 335°
2026-05-07 09:09 46.19561 11.56976 28254 ft 433 kts 335°
2026-05-07 09:10 46.22434 11.55618 28562 ft 435 kts 335°
2026-05-07 09:10 46.25326 11.54247 28829 ft 439 kts 335°
2026-05-07 09:10 46.28233 11.52870 29113 ft 440 kts 335°
2026-05-07 09:10 46.31113 11.51500 29440 ft 443 kts 335°
2026-05-07 09:11 46.34051 11.50104 29755 ft 446 kts 335°
2026-05-07 09:11 46.37058 11.48668 29860 ft 453 kts 335°
2026-05-07 09:11 46.40023 11.47253 30089 ft 455 kts 335°
2026-05-07 09:11 46.43032 11.45828 30360 ft 455 kts 335°
2026-05-07 09:12 46.46067 11.44370 30721 ft 453 kts 336°
2026-05-07 09:12 46.49019 11.42961 31069 ft 452 kts 335°
2026-05-07 09:12 46.52008 11.41529 31346 ft 452 kts 336°
2026-05-07 09:12 46.55029 11.40082 31638 ft 451 kts 335°
2026-05-07 09:13 46.57960 11.38675 31884 ft 446 kts 336°
2026-05-07 09:13 46.60890 11.37270 31944 ft 444 kts 335°
2026-05-07 09:13 46.66859 11.34393 32002 ft 454 kts 336°
2026-05-07 09:14 46.72812 11.31524 31965 ft 451 kts 336°
2026-05-07 09:14 46.78772 11.28640 32002 ft 449 kts 336°
2026-05-07 09:15 46.84713 11.25760 32005 ft 451 kts 336°
2026-05-07 09:15 46.90664 11.22874 31996 ft 450 kts 338°
2026-05-07 09:16 46.96905 11.21365 32005 ft 459 kts 354°
2026-05-07 09:16 47.03344 11.21644 31985 ft 462 kts 359°
2026-05-07 09:17 47.09738 11.22074 31991 ft 462 kts 359°
2026-05-07 09:17 47.16151 11.22509 32007 ft 460 kts 359°
2026-05-07 09:18 47.22543 11.22941 32000 ft 459 kts 359°
2026-05-07 09:18 47.28918 11.23371 32002 ft 458 kts 359°
2026-05-07 09:19 47.35291 11.23806 31999 ft 457 kts 359°
2026-05-07 09:19 47.41646 11.24242 32016 ft 456 kts 359°
2026-05-07 09:20 47.47991 11.24677 31978 ft 457 kts 359°
2026-05-07 09:20 47.54303 11.25117 31990 ft 456 kts 356°
2026-05-07 09:21 47.60631 11.25122 31994 ft 454 kts 356°
2026-05-07 09:21 47.66966 11.25088 32004 ft 455 kts 356°
2026-05-07 09:22 47.73285 11.25596 31998 ft 457 kts
2026-05-07 09:22 47.78408 11.27674 31599 ft 465 kts 20°
2026-05-07 09:23 47.81415 11.29414 30852 ft 463 kts 18°
2026-05-07 09:23 47.84432 11.31084 30129 ft 461 kts 19°
2026-05-07 09:23 47.87470 11.32520 29282 ft 455 kts 12°
2026-05-07 09:23 47.90551 11.33481 28455 ft 450 kts
2026-05-07 09:24 47.93650 11.33844 27660 ft 444 kts
2026-05-07 09:24 47.96725 11.34135 26881 ft 441 kts
2026-05-07 09:24 47.99763 11.34588 26111 ft 434 kts
2026-05-07 09:24 48.02679 11.35039 25322 ft 408 kts
2026-05-07 09:25 48.05428 11.35429 24552 ft 390 kts 11°
2026-05-07 09:25 48.07899 11.36904 23817 ft 376 kts 27°
2026-05-07 09:25 48.10045 11.39008 23010 ft 363 kts 36°
2026-05-07 09:25 48.12012 11.41282 22173 ft 351 kts 36°
2026-05-07 09:26 48.13898 11.43524 21352 ft 342 kts 37°
2026-05-07 09:26 48.15730 11.45728 20555 ft 334 kts 37°
2026-05-07 09:26 48.17504 11.47867 19784 ft 327 kts 37°
2026-05-07 09:26 48.19256 11.49980 19035 ft 321 kts 37°
2026-05-07 09:27 48.20964 11.52096 18300 ft 317 kts 43°
2026-05-07 09:27 48.22346 11.54629 17467 ft 312 kts 62°
2026-05-07 09:27 48.23797 11.60647 15910 ft 303 kts 77°
2026-05-07 09:28 48.24283 11.63708 15144 ft 301 kts 78°
2026-05-07 09:28 48.24687 11.66792 14283 ft 301 kts 84°
2026-05-07 09:28 48.24948 11.69918 13412 ft 302 kts 85°
2026-05-07 09:28 48.25198 11.73038 12508 ft 302 kts 85°
2026-05-07 09:29 48.25442 11.76182 11622 ft 302 kts 85°
2026-05-07 09:29 48.25683 11.79303 10772 ft 301 kts 85°
2026-05-07 09:29 48.25922 11.82423 9930 ft 300 kts 84°
2026-05-07 09:29 48.26160 11.85539 9010 ft 300 kts 84°
2026-05-07 09:30 48.26397 11.88636 8121 ft 298 kts 84°
2026-05-07 09:30 48.26629 11.91723 7246 ft 297 kts 84°
2026-05-07 09:30 48.26861 11.94790 6402 ft 295 kts 84°
2026-05-07 09:30 48.27091 11.97836 5510 ft 293 kts 84°
2026-05-07 09:31 48.27315 12.00854 4636 ft 290 kts 84°
2026-05-07 09:31 48.27539 12.03804 4183 ft 272 kts 83°
2026-05-07 09:31 48.27742 12.06487 4047 ft 247 kts 84°
2026-05-07 09:31 48.28046 12.08961 3964 ft 238 kts 64°
2026-05-07 09:32 48.29064 12.10862 3966 ft 233 kts 28°
2026-05-07 09:32 48.30577 12.11586 4026 ft 228 kts
2026-05-07 09:32 48.32152 12.11688 4062 ft 219 kts 356°
2026-05-07 09:32 48.33557 12.11455 3975 ft 191 kts 328°
2026-05-07 09:33 48.34414 12.10148 3854 ft 174 kts 283°
2026-05-07 09:33 48.34499 12.08365 3970 ft 172 kts 268°
2026-05-07 09:33 48.34435 12.06573 4023 ft 167 kts 265°
2026-05-07 09:33 48.34363 12.04894 3972 ft 158 kts 266°
2026-05-07 09:34 48.34334 12.03154 3451 ft 176 kts 272°
2026-05-07 09:34 48.34482 12.01345 3233 ft 173 kts 277°
2026-05-07 09:34 48.34613 11.99611 3172 ft 157 kts 273°
2026-05-07 09:34 48.34720 11.98113 3062 ft 137 kts 277°
2026-05-07 09:35 48.34928 11.96747 2843 ft 130 kts 281°
2026-05-07 09:35 48.35044 11.95475 2711 ft 123 kts 269°
2026-05-07 09:35 48.34901 11.94162 2366 ft 129 kts 259°
2026-05-07 09:35 48.34758 11.92861 2034 ft 123 kts 264°
2026-05-07 09:36 48.34686 11.91542 1865 ft 128 kts 272°
2026-05-07 09:36 48.34803 11.90177 1838 ft 131 kts 286°
2026-05-07 09:36 48.35002 11.88904 2071 ft 126 kts 269°
2026-05-07 09:36 48.34880 11.87526 1716 ft 139 kts 262°
2026-05-07 09:37 48.34753 11.86163 1677 ft 126 kts 265°
2026-05-07 09:37 48.34677 11.84820 1759 ft 125 kts 270°
2026-05-07 09:37 48.34646 11.83464 1903 ft 125 kts 270°
2026-05-07 09:37 48.34616 11.82105 1780 ft 135 kts 262°
2026-05-07 09:38 48.34470 11.80752 1564 ft 124 kts 267°
2026-05-07 09:38 48.34411 11.79577 1475 ft 94 kts 266°
2026-05-07 09:38 48.34358 11.78871 1479 ft 46 kts 265°
2026-05-07 09:38 48.34384 11.78577 1479 ft 9 kts 291°
2026-05-07 09:39 48.34403 11.78506 1481 ft 6 kts 292°
2026-05-07 09:39 48.34420 11.78448 1482 ft 7 kts 294°
2026-05-07 09:39 48.34441 11.78373 1474 ft 9 kts 292°
2026-05-07 09:39 48.34474 11.78259 1482 ft 16 kts 293°
2026-05-07 09:40 48.34537 11.78104 1478 ft 17 kts 326°
2026-05-07 09:40 48.34654 11.78076 1484 ft 17 kts 21°
2026-05-07 09:40 48.34688 11.78230 1484 ft 19 kts 83°
2026-05-07 09:40 48.34708 11.78483 1484 ft 28 kts 84°
2026-05-07 09:41 48.34731 11.78787 1484 ft 31 kts 83°
2026-05-07 09:41 48.34757 11.79113 1484 ft 32 kts 83°
2026-05-07 09:41 48.34783 11.79448 1473 ft 30 kts 83°
2026-05-07 09:41 48.34877 11.79554 1480 ft 19 kts 353°
2026-05-07 09:42 48.35023 11.79529 1484 ft 23 kts 353°
2026-05-07 09:42 48.35188 11.79500 1480 ft 24 kts 352°
2026-05-07 09:42 48.35296 11.79481 1474 ft 12 kts 353°
2026-05-07 09:42 48.35314 11.79436 1482 ft 3 kts 262°
2026-05-07 09:43 48.35311 11.79407 1478 ft 3 kts 263°
2026-05-07 09:43 48.35308 11.79369 1484 ft 5 kts 264°
2026-05-07 09:43 48.35306 11.79340 1484 ft 0 kts 264°